Location: ????????
(60.5616°N, 46.8254°E)
Time: 06:48:37
(UTC+00:00)

Resurs 01 Rocket - Pass Details

Date: 18 February 2020
Orbit: 634 x 645 km, 98.0° (Epoch: 30 March)

Event Time Altitude Azimuth Distance (km) Brightness Sun altitude
Exits shadow 18:56:16 14° 276° (W) 1,813 4.4 -35.5°
Maximum altitude 18:56:23 14° 278° (W) 1,812 4.4 -35.5°
Drops below altitude 10° 18:58:39 10° 308° (NW) 2,051 5.0 -35.7°
Sets 19:01:58 0° 335° (NNW) 2,964 6.0 -36.0°
